Other Public Products
Issued by NWS Grand Forks, ND

Home | Current Version | Previous Version | Graphics & Text | Print | Product List | Glossary On
Versions: 1 2 3 4 5 6 7 8 9 10 11 12 13 14 15 16 17 18 19 20 21 22 23 24 25 26 27 28 29 30 31 32 33 34 35 36 37 38 39 40 41 42 43 44 45 46 47 48 49 50
000
FPUS83 KFGF 241010
OPUFGF
PRAIRIE TO PINES WEATHER ROUNDUP
NATIONAL WEATHER SERVICE EASTERN NORTH DAKOTA/GRAND FORKS ND
400 AM CST TUE JAN 24 2017

 **SATELLITE DATA USED TO AUGMENT SKY COVER AT AUTOMATED STATIONS**
 *****  WEATHER ACROSS EASTERN NORTH DAKOTA  *****

CITY           SKY/WX    TMP DP  RH WIND       PRES   REMARKS
GRAND FORKS    CLOUDY    26  19  74 W12       29.86R WCI  16
GRAND FORKS AF CLOUDY    25  20  80 W7        29.85S WCI  17
GRAND CITY NWS NOT AVBL
BUXTON         NOT AVBL
DEVILS LAKE    CLOUDY    22  19  89 W12       29.82S WCI  10
FARGO          CLOUDY    32  26  78 W5        29.87R
WAHPETON ARPT  CLOUDY    32  27  80 CALM      29.87S
$$

 *****  WEATHER ACROSS CENTRAL AND WESTERN NORTH DAKOTA  *****

CITY           SKY/WX    TMP DP  RH WIND       PRES   REMARKS
JAMESTOWN      CLOUDY    25  22  88 NW13      29.84R WCI  14
BISMARCK       CLOUDY    24  19  81 NW8       29.87R WCI  15
MINOT          CLOUDY    25  18  74 W15       29.82S WCI  13
MINOT AFB      NOT AVBL
GARRISON         N/A     20  17  88 W6        29.85R WCI  12
WILLISTON      CLOUDY    22  17  81 NW9       29.87R WCI  12
DICKINSON      CLOUDY    20  17  88 NW7       29.80S WCI  11
HETTINGER      CLOUDY    22  20  92 N7        29.81S FOG     WCI  13
$$

 *****  OTHER OBSERVATIONS NORTHEAST NORTH DAKOTA  *****

CITY           SKY/WX    TMP DP  RH WIND       PRES   REMARKS
WALHALLA       NOT AVBL
LANGDON        NOT AVBL
CAVALIER       CLOUDY    27  23  86 SW9       29.82S WCI  17
GRAFTON        CLOUDY    27  23  86 W13       29.86R WCI  16
CANDO          NOT AVBL
FORT TOTTEN      N/A     21  20  96 W7        29.95S WCI  12
ROLLA            N/A    N/A N/A N/A MISG        N/A
RUGBY            N/A     21  19  93 W13       29.81S WCI   9
 ***** THE ABOVE OBSERVATIONS ARE NON NWS ARE NOT QUALITY
        CONTROLLED AND MAY MIS-REPORT RAIN FOR SNOW...
$$

 *****  OTHER OBSERVATIONS SOUTHEAST NORTH DAKOTA *****

CITY           SKY/WX    TMP DP  RH WIND       PRES   REMARKS
COOPERSTOWN    CLOUDY    23  21  93 W15       29.85R WCI  10
VALLEY CITY    CLOUDY    27  27 100 N8        29.87R WCI  18
OAKES          NOT AVBL
GWINNER        PTSUNNY   30  30 100 N5        29.86S
SHEYENNE NWR     N/A     28  24  86 CALM      29.95S
BUFFALO        NOT AVBL
WYNDMERE       NOT AVBL
 ***** THE ABOVE OBSERVATIONS ARE NON NWS ARE NOT QUALITY
       CONTROLLED AND MAY MIS-REPORT RAIN FOR SNOW...
$$

  *****  WEATHER ACROSS NORTHERN MINNESOTA  *****

CITY           SKY/WX    TMP DP  RH WIND       PRES   REMARKS
FLAG ISLAND    CLOUDY    27  21  80 SW9       29.81S WCI  17
WARROAD        CLOUDY    25  21  86 SW9       29.83S WCI  15
ROSEAU         CLOUDY    25  21  86 S9        29.82F WCI  15
HALLOCK        CLOUDY    27  25  93 SW9       29.82S WCI  17
THF RVR FALLS  CLOUDY    23  20  88 W10       29.86R WCI  12
HALSTAD          N/A     28  25  88 N8          N/A  WCI  20
FOSSTON        CLOUDY    27  23  86 W9        29.85R WCI  17
BAUDETTE       CLOUDY    26  21  81 SW10      29.82S WCI  16
WASKISH        CLOUDY    27  25  93 W9        29.84S WCI  17
CROOKSTON      CLOUDY    25  21  86 W8        29.88R WCI  16
$$
  *****  WEATHER ACROSS CENTRAL AND WEST MINNESOTA  *****

CITY           SKY/WX    TMP DP  RH WIND       PRES   REMARKS
BEMIDJI        CLOUDY    27  23  84 W6        29.84S WCI  21
PARK RAPIDS    CLOUDY    28  21  75 N5        29.83S WCI  23
WADENA         CLOUDY    28  25  86 N5        29.84S WCI  23
DETROIT LAKES  CLOUDY    30  27  86 CALM      29.86R
MOORHEAD       CLOUDY    30  25  80 W3        29.88R
FERGUS FALLS   CLOUDY    30  27  86 CALM      29.90R
ELBOW LAKE     CLOUDY    30  29  98 CALM      29.86S FOG
MORRIS MN      CLOUDY    30  28  93 CALM      29.86S
STAPLES        CLOUDY    28  25  86 N3        29.85S
WHEATON        CLOUDY    30  28  93 CALM      29.88F
$$
  *****  WEATHER ELSEWHERE ACROSS MINNESOTA  *****

CITY           SKY/WX    TMP DP  RH WIND       PRES   REMARKS
DULUTH         CLOUDY    31  27  85 NW8       29.82S WCI  23
INTRNTL FALLS  CLOUDY    29  23  78 SW6       29.84R WCI  23
ELY            CLOUDY    30  28  93 CALM      29.82S
CLOQUET        CLOUDY    30  28  93 CALM      29.83F
BRAINERD       CLOUDY    30  24  78 N3        29.85S
HIBBING        CLOUDY    30  25  81 W3        29.83S
ALEXANDRIA     CLOUDY    30  24  78 CALM      29.85S
SAINT CLOUD    CLOUDY    31  26  82 NW3       29.86F
MINNEAPOLIS    CLOUDY    32  26  78 N6        29.87F
$$

  *****  WEATHER ACROSS SOUTH DAKOTA  *****

CITY           SKY/WX    TMP DP  RH WIND       PRES   REMARKS
SIOUX FALLS    CLOUDY    32  30  92 SE8       29.80S WCI  25
BROOKINGS      CLOUDY    30  28  92 E5        29.80S
WATERTOWN      CLOUDY    29  26  89 E7        29.81S WCI  22
HURON          CLOUDY    31  29  92 NE6       29.81R
SISSETON         N/A     31  29  92 CALM      29.85R
ABERDEEN       CLOUDY    29  26  89 NE7       29.84S WCI  22
MITCHELL       CLOUDY    32  30  92 E8        29.79S WCI  25
PIERRE         CLOUDY    28  26  92 NE12      29.76S FOG     WCI  18
MOBRIDGE       CLOUDY    28  23  81 NE16      29.79R WCI  16
RAPID CITY     CLOUDY    22  21  96 N20G26    29.72S FOG     WCI   7
$$

  *****  SOME WEATHER IN NEARBY STATES *****

CITY           SKY/WX    TMP DP  RH WIND       PRES   REMARKS
GLASGOW MT     FLURRIES  20  16  84 W8        29.87S WCI  10
GREAT FALLS MT CLOUDY    17  14  88 CALM      29.85S
CHEYENNE WY    CLOUDY    29  27  92 CALM      29.50F
SCOTTSBLUFF NE LGT SNOW  25  20  81 NE17      29.58F WCI  12
OMAHA NE       CLOUDY    31  26  82 E8        29.79F WCI  23
DES MOINES IA  CLOUDY    32  28  85 S5        29.87S
DAVENPORT IA   CLOUDY    32  30  92 W3        29.87S
CHICAGO IL     CLOUDY    37  33  85 NW8       29.83S
EAU CLAIRE WI  CLOUDY    32  30  92 W3        29.85S
LA CROSSE WI   CLOUDY    35  31  85 NW3       29.86F
$$

  *****  SOME NATIONAL WEATHER *****

CITY           SKY/WX    TMP DP  RH WIND       PRES   REMARKS
LA GUARDIA NY  LGT RAIN  39  35  86 N17G29    29.36R FOG
RALEIGH NC     MOCLDY    43  37  79 VRB3      29.54R
ATLANTA GA     MOCLDY    48  42  80 NW18G26   29.75R
NEW ORLEANS LA FAIR      48  46  93 CALM      29.91R
OKLAHOMA CITY  FAIR      44  36  73 SE10      29.60F
ALBUQUERQUE NM MOCLDY    37  30  75 NW8       29.64S
SALT LAKE CITY MOCLDY    32  21  64 NW10      29.67R WCI  24
LOS ANGELES CA FAIR      45  40  82 NE3       29.94R
BOISE ID       MOCLDY    27  22  81 W10       29.72R WCI  17
SEATTLE WA     FAIR      34  30  85 SE7       30.03R
$$

*** WEATHER ACROSS MANITOBA...SASKATCHEWAN AND ONTARIO ***
                ***ONTARIO***

CITY           SKY/WX    TMP DP  RH WIND       PRES   REMARKS
GERALDTON      DRZL/FOG  32  32 100 NW3       29.77S VSB 5/8
THUNDER BAY    CLOUDY    32  32 100 VRB2      29.81F
SIOUX LOOKOUT  MOCLDY    30  30 100 CALM      29.79R
TORONTO        MOCLDY    32  25  74 NE10      29.70F WCI  24
BIG TROUT LK   CLOUDY    23  23 100 SE3       29.80R
PICKLE LAKE    NOT AVBL
DRYDEN         CLOUDY    28  27  93 W10       29.80R FOG     WCI  19
KENORA         FLURRIES  25  23  93 SW8       29.79R WCI  16
$$
                *** MANITOBA***

CITY           SKY/WX    TMP DP  RH WIND       PRES   REMARKS
BRANDON        FLURRIES  23  19  86 W15       29.78R WCI  10
DAUPHIN        LGT SNOW  23  21  93 NW7       29.79R WCI  15
ISLAND LAKE    LGT SNOW  30  28  93 VRB2      29.75R
PILOT MOUND      N/A     21  19  93 W8          N/A  WCI  12
THE PAS        FLURRIES  14   9  79 NW7       29.86S WCI   4
THOMPSON       NOT AVBL
WINNIPEG       CLOUDY    27  23  86 SW10      29.77S WCI  17
LYNN LAKE      FLURRIES   7   5  92 NW7       29.86F WCI  -5
CHURCHILL      FLURRIES  10   9  92 NE6       29.97S WCI   1
GILLAM         FLURRIES  14  12  92 NE8       29.86S WCI   3
$$
                ***SASKATCHEWAN***

CITY           SKY/WX    TMP DP  RH WIND       PRES   REMARKS
ESTEVAN        CLOUDY    18  14  86 NW14      29.83S WCI   4
KINDERSLEY     FLURRIES  10   7  85 N9        29.88R WCI  -2
LLOYDMINSTER   FLURRIES   9   7  92 NW3       29.90S
PRINCE ALBERT  FLURRIES  12   9  85 N3        29.91R
REGINA         CLOUDY    14  10  85 NW10      29.85S WCI   1
YORKTON        FLURRIES  16  14  93 NW12G17   29.80R WCC1F1C2F2C3F3C4F4C5F5C6F6C7F7C8F8C9F9CaFaCbFbCcFcCdFdCe!



USA.gov is the U.S. government's official web portal to all federal, state and local government web resources and services.